Weather History for Monroe, MI

Change the Weather History Date:

Monday, January 21, 2013

  Actual Average Record
Temperature  
Mean Temperature 14 °F -  
Max Temperature 21 °F 31 °F 55 °F (1951)
Min Temperature 8 °F 17 °F -17 °F (1984)
Degree Days  
Heating Degree Days 50    
Moisture  
Dew Point 9 °F    
Average Humidity 70    
Maximum Humidity 86    
Minimum Humidity 54    
Precipitation  
Precipitation 0.00 in - - ()
Sea Level Pressure  
Sea Level Pressure 30.02 in    
Wind  
Wind Speed 11 mph (West)    
Max Wind Speed 22 mph    
Max Gust Speed 28 mph    
Visibility 9 miles    
Events Snow    
Averages and records for this station are not official NWS values.
T = Trace of Precipitation, MM = Missing Value Source: NWS Daily Summary

Daily Weather History Graph

Daily Weather History Graph

Search for Another Location

Airport:

Trip Planner

Search our weather history database for the weather conditions in past years. The results will help you decide how hot, cold, wet, or windy it might be!

Date:

Astronomy

Jan. 21, 2013 Rise Set
Actual Time 7:55 AM EST 5:35 PM EST
Civil Twilight 7:25 AM EST 6:05 PM EST
Nautical Twilight 6:51 AM EST 6:39 PM EST
Astronomical Twilight 6:17 AM EST 7:12 PM EST
Moon 1:14 PM EST (1/21) 3:23 AM EST (1/21)
Length of Visible Light 10h 40m
Length of Day
9h 39m
Waxing Gibbous, 75% of the Moon is Illuminated
Jan 21
Waxing Gibbous
Jan 26
Full
Feb 3
Last Quarter
Feb 10
New
Feb 17
First Quarter

Hourly Weather History & Observations

Time (EST) Temp. Windchill Dew Point Humidity Pressure Visibility Wind Dir Wind Speed Gust Speed Precip Events Conditions
12:13 AM 19.4 °F 9.5 °F 8.6 °F 63% 30.13 in 10.0 mi NW 8.1 mph - N/A   Overcast
12:33 AM 19.4 °F 11.5 °F 8.6 °F 63% 30.12 in 10.0 mi NW 5.8 mph - N/A   Overcast
12:53 AM 19.4 °F 9.5 °F 8.6 °F 63% 30.11 in 10.0 mi WNW 8.1 mph - N/A   Overcast
1:14 AM 19.4 °F 11.5 °F 8.6 °F 63% 30.10 in 10.0 mi West 5.8 mph - N/A   Overcast
1:34 AM 19.4 °F - 8.6 °F 63% 30.09 in 10.0 mi Calm Calm - N/A   Overcast
1:54 AM 19.4 °F 11.5 °F 10.4 °F 68% 30.09 in 10.0 mi WSW 5.8 mph - N/A   Overcast
2:14 AM 19.4 °F 10.4 °F 10.4 °F 68% 30.09 in 10.0 mi WSW 6.9 mph - N/A   Overcast
2:34 AM 19.4 °F 11.5 °F 10.4 °F 68% 30.09 in 10.0 mi WSW 5.8 mph - N/A   Overcast
2:54 AM 19.4 °F 12.8 °F 10.4 °F 68% 30.08 in 10.0 mi WSW 4.6 mph - N/A   Overcast
3:34 AM 19.4 °F 11.5 °F 8.6 °F 63% 30.07 in 10.0 mi SW 5.8 mph - N/A   Overcast
3:54 AM 19.4 °F 9.5 °F 10.4 °F 68% 30.06 in 10.0 mi SW 8.1 mph - N/A   Overcast
4:14 AM 19.4 °F 10.4 °F 10.4 °F 68% 30.05 in 10.0 mi SW 6.9 mph - N/A   Overcast
4:34 AM 19.4 °F 11.5 °F 10.4 °F 68% 30.04 in 10.0 mi SW 5.8 mph - N/A   Overcast
4:55 AM 19.4 °F 9.5 °F 10.4 °F 68% 30.03 in 10.0 mi SW 8.1 mph - N/A   Overcast
5:15 AM 19.4 °F 8.6 °F 10.4 °F 68% 30.03 in 10.0 mi SW 9.2 mph - N/A   Overcast
5:35 AM 19.4 °F 10.4 °F 12.2 °F 74% 30.02 in 10.0 mi SW 6.9 mph - N/A   Overcast
6:15 AM 21.2 °F 10.9 °F 12.2 °F 68% 30.01 in 10.0 mi SSW 9.2 mph - N/A   Overcast
6:35 AM 21.2 °F 8.9 °F 12.2 °F 68% 30.00 in 7.0 mi SW 12.7 mph 18.4 mph N/A Snow Light Snow
7:15 AM 21.2 °F 9.5 °F 12.2 °F 68% 30.00 in 10.0 mi SW 11.5 mph - N/A   Overcast
7:35 AM 21.2 °F 9.5 °F 12.2 °F 68% 30.00 in 10.0 mi SW 11.5 mph 17.3 mph N/A   Overcast
7:55 AM 21.2 °F 7.8 °F 12.2 °F 68% 30.00 in 10.0 mi WSW 15.0 mph 20.7 mph N/A   Overcast
8:16 AM 21.2 °F 7.3 °F 12.2 °F 68% 29.99 in 10.0 mi WSW 16.1 mph - N/A   Overcast
8:31 AM 21.2 °F 7.8 °F 12.2 °F 68% 29.99 in 10.0 mi WSW 15.0 mph - N/A   Overcast
8:51 AM 21.2 °F 7.8 °F 12.2 °F 68% 29.99 in 10.0 mi WSW 15.0 mph 23.0 mph N/A   Overcast
9:11 AM 19.4 °F 5.0 °F 10.4 °F 68% 29.98 in 10.0 mi West 16.1 mph 20.7 mph N/A   Overcast
9:31 AM 19.4 °F 5.0 °F 10.4 °F 68% 29.98 in 10.0 mi WSW 16.1 mph 23.0 mph N/A   Overcast
9:51 AM 21.2 °F 8.3 °F 10.4 °F 63% 29.99 in 10.0 mi WSW 13.8 mph 25.3 mph N/A   Overcast
10:11 AM 21.2 °F 8.3 °F 10.4 °F 63% 29.99 in 10.0 mi West 13.8 mph 20.7 mph N/A   Mostly Cloudy
10:31 AM 21.2 °F 7.3 °F 8.6 °F 58% 29.99 in 10.0 mi West 16.1 mph 23.0 mph N/A   Mostly Cloudy
10:51 AM 21.2 °F 7.3 °F 8.6 °F 58% 29.98 in 10.0 mi West 16.1 mph 25.3 mph N/A   Overcast
11:12 AM 21.2 °F 7.8 °F 8.6 °F 58% 29.97 in 10.0 mi West 15.0 mph 18.4 mph N/A   Overcast
11:32 AM 21.2 °F 6.0 °F 8.6 °F 58% 29.97 in 10.0 mi West 19.6 mph 26.5 mph N/A   Overcast
11:52 AM 21.2 °F 6.4 °F 8.6 °F 58% 29.96 in 10.0 mi West 18.4 mph 24.2 mph N/A   Overcast
12:12 PM 19.4 °F 2.8 °F 10.4 °F 68% 29.95 in 5.0 mi West 21.9 mph 26.5 mph N/A Snow Light Snow
12:32 PM 21.2 °F 5.6 °F 6.8 °F 54% 29.95 in 10.0 mi West 20.7 mph 25.3 mph N/A   Overcast
12:52 PM 19.4 °F 3.2 °F 6.8 °F 58% 29.94 in 10.0 mi West 20.7 mph 27.6 mph N/A   Mostly Cloudy
1:12 PM 21.2 °F 6.4 °F 6.8 °F 54% 29.94 in 10.0 mi West 18.4 mph 26.5 mph N/A   Overcast
1:32 PM 17.6 °F 2.2 °F 12.2 °F 79% 29.94 in 1.0 mi WNW 17.3 mph 23.0 mph N/A Snow Light Snow
1:52 PM 17.6 °F 3.7 °F 12.2 °F 79% 29.94 in 1.2 mi WNW 13.8 mph 21.9 mph N/A Snow Light Snow
2:12 PM 19.4 °F 6.6 °F 12.2 °F 74% 29.94 in 7.0 mi West 12.7 mph - N/A Snow Light Snow
2:33 PM 19.4 °F 5.5 °F 12.2 °F 74% 29.94 in 7.0 mi WNW 15.0 mph - N/A Snow Light Snow
2:53 PM 19.4 °F 3.6 °F 8.6 °F 63% 29.95 in 7.0 mi West 19.6 mph 25.3 mph N/A Snow Light Snow
3:13 PM 15.8 °F 0.9 °F 12.2 °F 86% 29.97 in 0.2 mi NW 15.0 mph - N/A Snow Light Snow
3:33 PM 15.8 °F 1.4 °F 10.4 °F 79% 29.97 in 2.0 mi WNW 13.8 mph 23.0 mph N/A Snow Light Snow
3:53 PM 17.6 °F 3.2 °F 8.6 °F 68% 29.98 in 10.0 mi West 15.0 mph - N/A   Overcast
4:13 PM 15.8 °F -0.6 °F 12.2 °F 86% 29.99 in 1.8 mi WNW 18.4 mph 23.0 mph N/A Snow Light Snow
4:33 PM 15.8 °F 2.7 °F 10.4 °F 79% 30.00 in 7.0 mi WNW 11.5 mph - N/A   Mostly Cloudy
4:53 PM 15.8 °F 2.7 °F 10.4 °F 79% 30.01 in 3.0 mi NW 11.5 mph 20.7 mph N/A Snow Light Snow
5:13 PM 14.0 °F -0.8 °F 8.6 °F 79% 30.01 in 1.5 mi NW 13.8 mph - N/A Snow Light Snow
5:34 PM 14.0 °F -0.8 °F 8.6 °F 79% 30.02 in 10.0 mi West 13.8 mph - N/A   Overcast
5:54 PM 14.0 °F -3.0 °F 8.6 °F 79% 30.02 in 7.0 mi WNW 18.4 mph 24.2 mph N/A   Overcast
6:14 PM 14.0 °F -2.5 °F 6.8 °F 73% 30.03 in 10.0 mi WNW 17.3 mph 23.0 mph N/A   Overcast
6:34 PM 12.2 °F -2.5 °F 5.0 °F 73% 30.03 in 10.0 mi WNW 12.7 mph - N/A   Mostly Cloudy
6:54 PM 12.2 °F -3.1 °F 3.2 °F 67% 30.04 in 10.0 mi West 13.8 mph - N/A   Clear
7:14 PM 12.2 °F -4.3 °F 1.4 °F 62% 30.05 in 10.0 mi West 16.1 mph 23.0 mph N/A   Clear
7:54 PM 10.4 °F -5.4 °F 3.2 °F 73% 30.06 in 10.0 mi WNW 13.8 mph 19.6 mph N/A   Scattered Clouds
8:14 PM 10.4 °F -4.1 °F 3.2 °F 73% 30.06 in 10.0 mi WNW 11.5 mph - N/A   Scattered Clouds
8:35 PM 10.4 °F -4.1 °F 1.4 °F 67% 30.07 in 10.0 mi West 11.5 mph - N/A   Clear
8:55 PM 10.4 °F -3.3 °F 3.2 °F 73% 30.07 in 10.0 mi West 10.4 mph - N/A   Scattered Clouds
9:15 PM 10.4 °F -2.4 °F 3.2 °F 73% 30.07 in 10.0 mi West 9.2 mph - N/A   Mostly Cloudy
9:35 PM 8.6 °F -3.7 °F 3.2 °F 79% 30.08 in 10.0 mi West 8.1 mph - N/A   Mostly Cloudy
10:35 PM 10.4 °F -3.3 °F 5.0 °F 79% 30.09 in 5.0 mi West 10.4 mph - N/A   Haze
10:55 PM 8.6 °F -5.5 °F 5.0 °F 85% 30.09 in 7.0 mi West 10.4 mph - N/A Snow Light Snow
11:15 PM 8.6 °F -3.7 °F 5.0 °F 85% 30.09 in 10.0 mi West 8.1 mph - N/A   Mostly Cloudy
11:36 PM 8.6 °F -2.6 °F 3.2 °F 79% 30.09 in 10.0 mi West 6.9 mph - N/A   Mostly Cloudy
11:56 PM 8.6 °F -4.7 °F 3.2 °F 79% 30.09 in 7.0 mi WNW 9.2 mph - N/A   Overcast